Weather History for Huntingburg, IN

Change the Weather History Date:

Saturday, June 22, 2013

  Actual Average Record
Temperature  
Mean Temperature 79 °F -  
Max Temperature 89 °F 80 °F 89 °F (1998)
Min Temperature 69 °F 61 °F 55 °F (2003)
Cooling Degree Days 14    
Growing Degree Days 29 (Base 50)    
Moisture  
Dew Point 67 °F    
Average Humidity 69    
Maximum Humidity 83    
Minimum Humidity 49    
Precipitation  
Precipitation 0.00 in - - ()
Sea Level Pressure  
Sea Level Pressure 30.13 in    
Wind  
Wind Speed 6 mph (South)    
Max Wind Speed 14 mph    
Max Gust Speed 18 mph    
Visibility 10 miles    
Events Thunderstorm    
Averages and records for this station are not official NWS values.
T = Trace of Precipitation, MM = Missing Value Source: NWS Daily Summary

Daily Weather History Graph

Daily Weather History Graph

Search for Another Location

Airport:

Trip Planner

Search our weather history database for the weather conditions in past years. The results will help you decide how hot, cold, wet, or windy it might be!

Date:

Astronomy

Jun. 22, 2013 Rise Set
Actual Time 6:24 AM EDT 9:14 PM EDT
Civil Twilight 5:53 AM EDT 9:46 PM EDT
Nautical Twilight 5:13 AM EDT 10:26 PM EDT
Astronomical Twilight 4:28 AM EDT 11:11 PM EDT
Moon 8:29 PM EDT (6/22) 5:36 AM EDT (6/22)
Length of Visible Light 15h 53m
Length of Day
14h 49m
Waxing Gibbous, 99% of the Moon is Illuminated
Jun 22
Waxing Gibbous
Jun 23
Full
Jun 30
Last Quarter
Jul 8
New
Jul 15
First Quarter

Hourly Weather History & Observations

Time (EDT) Temp. Heat Index Dew Point Humidity Pressure Visibility Wind Dir Wind Speed Gust Speed Precip Events Conditions
12:15 AM 73.4 °F - 64.4 °F 73% 30.11 in 10.0 mi South 3.5 mph - N/A   Clear
12:35 AM 73.4 °F - 64.4 °F 73% 30.13 in 10.0 mi SSW 3.5 mph - N/A   Clear
12:55 AM 73.4 °F - 64.4 °F 73% 30.13 in 10.0 mi Calm Calm - N/A   Clear
1:15 AM 71.6 °F - 64.4 °F 78% 30.13 in 10.0 mi SSE 3.5 mph - N/A   Clear
1:35 AM 73.4 °F - 62.6 °F 69% 30.14 in 10.0 mi SSE 3.5 mph - N/A   Clear
1:55 AM 73.4 °F - 62.6 °F 69% 30.14 in 10.0 mi SSE 3.5 mph - N/A   Clear
2:15 AM 71.6 °F - 62.6 °F 73% 30.14 in 10.0 mi SSE 4.6 mph - N/A   Clear
2:35 AM 71.6 °F - 62.6 °F 73% 30.13 in 10.0 mi SE 5.8 mph - N/A   Clear
2:55 AM 71.6 °F - 64.4 °F 78% 30.14 in 10.0 mi SE 4.6 mph - N/A   Clear
3:15 AM 71.6 °F - 62.6 °F 73% 30.13 in 10.0 mi SSE 4.6 mph - N/A   Clear
3:35 AM 71.6 °F - 64.4 °F 78% 30.13 in 10.0 mi SSE 3.5 mph - N/A   Clear
3:55 AM 69.8 °F - 64.4 °F 83% 30.12 in 10.0 mi SSE 3.5 mph - N/A   Clear
4:15 AM 71.6 °F - 64.4 °F 78% 30.12 in 10.0 mi SSE 4.6 mph - N/A   Clear
4:35 AM 69.8 °F - 64.4 °F 83% 30.11 in 10.0 mi South 3.5 mph - N/A   Scattered Clouds
4:55 AM 69.8 °F - 64.4 °F 83% 30.12 in 10.0 mi SE 5.8 mph - N/A   Scattered Clouds
5:15 AM 69.8 °F - 64.4 °F 83% 30.12 in 10.0 mi SSE 5.8 mph - N/A   Clear
5:35 AM 69.8 °F - 64.4 °F 83% 30.12 in 10.0 mi SSE 5.8 mph - N/A   Clear
5:55 AM 69.8 °F - 64.4 °F 83% 30.13 in 10.0 mi SSE 4.6 mph - N/A   Clear
6:15 AM 69.8 °F - 64.4 °F 83% 30.13 in 10.0 mi SSE 3.5 mph - N/A   Clear
6:35 AM 69.8 °F - 64.4 °F 83% 30.14 in 10.0 mi SSE 3.5 mph - N/A   Clear
6:55 AM 69.8 °F - 64.4 °F 83% 30.14 in 9.0 mi SE 3.5 mph - N/A   Clear
7:15 AM 69.8 °F - 64.4 °F 83% 30.15 in 7.0 mi Calm Calm - N/A   Clear
7:35 AM 71.6 °F - 66.2 °F 83% 30.15 in 10.0 mi SSE 3.5 mph - N/A   Clear
7:55 AM 73.4 °F - 66.2 °F 78% 30.15 in 10.0 mi South 5.8 mph - N/A   Clear
8:15 AM 73.4 °F - 66.2 °F 78% 30.17 in 10.0 mi South 4.6 mph - N/A   Clear
8:35 AM 75.2 °F - 66.2 °F 73% 30.17 in 10.0 mi South 5.8 mph - N/A   Clear
8:55 AM 75.2 °F - 68.0 °F 78% 30.17 in 10.0 mi South 5.8 mph - N/A   Clear
9:15 AM 78.8 °F - 68.0 °F 69% 30.18 in 10.0 mi South 6.9 mph - N/A   Clear
9:35 AM 78.8 °F - 68.0 °F 69% 30.18 in 10.0 mi SSW 10.4 mph - N/A   Clear
9:55 AM 80.6 °F 83.9 °F 69.8 °F 70% 30.18 in 10.0 mi SSW 9.2 mph - N/A   Clear
10:15 AM 80.6 °F 83.9 °F 69.8 °F 70% 30.18 in 10.0 mi South 8.1 mph - N/A   Clear
10:35 AM 82.4 °F 86.3 °F 69.8 °F 66% 30.19 in 10.0 mi SSW 6.9 mph - N/A   Clear
10:55 AM 82.4 °F 86.3 °F 69.8 °F 66% 30.19 in 10.0 mi South 8.1 mph - N/A   Clear
11:15 AM 82.4 °F 86.3 °F 69.8 °F 66% 30.18 in 10.0 mi South 9.2 mph - N/A   Clear
11:35 AM 84.2 °F 88.4 °F 69.8 °F 62% 30.18 in 10.0 mi South 6.9 mph - N/A   Clear
11:55 AM 84.2 °F 88.4 °F 69.8 °F 62% 30.17 in 10.0 mi SSW 11.5 mph 16.1 mph N/A   Clear
12:15 PM 86.0 °F 90.4 °F 69.8 °F 58% 30.17 in 10.0 mi SSW 9.2 mph 18.4 mph N/A   Clear
12:35 PM 86.0 °F 90.4 °F 69.8 °F 58% 30.16 in 10.0 mi South 11.5 mph 17.3 mph N/A   Partly Cloudy
12:55 PM 86.0 °F 90.4 °F 69.8 °F 58% 30.16 in 10.0 mi SSW 9.2 mph 17.3 mph N/A   Partly Cloudy
1:15 PM 87.8 °F 92.6 °F 69.8 °F 55% 30.15 in 10.0 mi South 10.4 mph - N/A   Scattered Clouds
1:35 PM 87.8 °F 92.6 °F 69.8 °F 55% 30.15 in 10.0 mi South 9.2 mph - N/A   Partly Cloudy
1:55 PM 87.8 °F 92.6 °F 69.8 °F 55% 30.15 in 10.0 mi South 10.4 mph - N/A   Clear
2:15 PM 87.8 °F 92.6 °F 69.8 °F 55% 30.14 in 10.0 mi SSW 6.9 mph - N/A   Partly Cloudy
2:35 PM 87.8 °F 92.6 °F 69.8 °F 55% 30.14 in 10.0 mi SSW 10.4 mph - N/A   Scattered Clouds
2:55 PM 87.8 °F 91.4 °F 68.0 °F 52% 30.13 in 10.0 mi SSW 12.7 mph 17.3 mph N/A   Partly Cloudy
3:15 PM 87.8 °F 91.4 °F 68.0 °F 52% 30.12 in 10.0 mi SSW 12.7 mph - N/A   Partly Cloudy
3:35 PM 87.8 °F 92.6 °F 69.8 °F 55% 30.12 in 10.0 mi South 11.5 mph - N/A   Clear
3:55 PM 87.8 °F 92.6 °F 69.8 °F 55% 30.10 in 10.0 mi South 10.4 mph 16.1 mph N/A   Scattered Clouds
4:15 PM 87.8 °F 92.6 °F 69.8 °F 55% 30.10 in 10.0 mi South 10.4 mph - N/A   Partly Cloudy
4:35 PM 87.8 °F 92.6 °F 69.8 °F 55% 30.10 in 10.0 mi SSW 10.4 mph - N/A   Partly Cloudy
4:55 PM 86.0 °F 89.4 °F 68.0 °F 55% 30.09 in 10.0 mi SSW 10.4 mph 16.1 mph N/A   Clear
5:15 PM 89.6 °F 94.7 °F 69.8 °F 52% 30.09 in 10.0 mi SSW 10.4 mph - N/A   Clear
5:35 PM 87.8 °F 91.4 °F 68.0 °F 52% 30.09 in 10.0 mi SSW 11.5 mph - N/A   Partly Cloudy
5:55 PM 87.8 °F 91.4 °F 68.0 °F 52% 30.08 in 10.0 mi South 10.4 mph - N/A   Clear
6:15 PM 86.0 °F 88.2 °F 66.2 °F 51% 30.08 in 10.0 mi South 9.2 mph - N/A   Clear
6:35 PM 87.8 °F 90.4 °F 66.2 °F 49% 30.08 in 10.0 mi SSW 11.5 mph - N/A   Clear
6:55 PM 86.0 °F 88.2 °F 66.2 °F 51% 30.08 in 10.0 mi South 6.9 mph - N/A   Clear
7:15 PM 84.2 °F 86.6 °F 66.2 °F 55% 30.09 in 10.0 mi SW 5.8 mph - N/A   Clear
7:35 PM 78.8 °F - 66.2 °F 65% 30.10 in 10.0 mi North 12.7 mph 18.4 mph N/A   Partly Cloudy
7:55 PM 77.0 °F - 66.2 °F 69% 30.11 in 10.0 mi North 13.8 mph - N/A   Partly Cloudy
8:15 PM 75.2 °F - 64.4 °F 69% 30.11 in 10.0 mi North 8.1 mph 16.1 mph N/A   Clear
8:35 PM 75.2 °F - 64.4 °F 69% 30.10 in 10.0 mi North 8.1 mph - N/A   Clear
8:55 PM 73.4 °F - 64.4 °F 73% 30.09 in 10.0 mi NNE 6.9 mph - N/A   Clear
9:15 PM 73.4 °F - 64.4 °F 73% 30.11 in 10.0 mi Calm Calm - N/A   Clear
9:35 PM 73.4 °F - 64.4 °F 73% 30.11 in 10.0 mi Calm Calm - N/A Thunderstorm Clear
9:55 PM 73.4 °F - 66.2 °F 78% 30.11 in 10.0 mi SSW 8.1 mph - N/A   Clear
10:15 PM 73.4 °F - 66.2 °F 78% 30.09 in 10.0 mi SE 3.5 mph - N/A   Clear
10:35 PM 73.4 °F - 66.2 °F 78% 30.09 in 10.0 mi Calm Calm - N/A   Clear
10:55 PM 71.6 °F - 66.2 °F 83% 30.10 in 10.0 mi Calm Calm - N/A   Clear
11:15 PM 71.6 °F - 66.2 °F 83% 30.09 in 10.0 mi SSE 4.6 mph - N/A   Clear
11:35 PM 71.6 °F - 66.2 °F 83% 30.09 in 10.0 mi SSE 5.8 mph - N/A   Clear
11:55 PM 71.6 °F - 64.4 °F 78% 30.08 in 10.0 mi SE 4.6 mph - N/A   Clear